Regional Weather Roundup
Issued by NWS Columbia, SC

Home | Current Version | Previous Version | Text Only | Print | Product List | Glossary On
Versions: 1 2 3 4 5 6 7 8 9 10 11 12 13 14 15 16 17 18 19 20 21 22 23 24 25 26 27 28
000
ASUS42 KCAE 241210
RWRCAE
REGIONAL WEATHER ROUNDUP
NATIONAL WEATHER SERVICE COLUMBIA SC
700 AM EST FRI NOV 24 2017

NOTE: "FAIR" INDICATES FEW OR NO CLOUDS BELOW 12,000 FEET WITH NO
SIGNIFICANT WEATHER AND/OR OBSTRUCTIONS TO VISIBILITY.

NOT ALL STATIONS ARE QUALITY CONTROLLED BY THE NATIONAL
WEATHER SERVICE. USE DATA WITH CAUTION...ESPECIALLY
DEWPOINT OBSERVATIONS.

SCZ001>056-GAZ040-063>065-077-241300-
...UPSTATE SOUTH CAROLINA...

CITY           SKY/WX    TMP DP  RH WIND       PRES   REMARKS
ANDERSON       CLEAR     30  29  96 CALM      30.05S
6HR MIN TEMP:  30; 6HR MAX TEMP:  36;

LIBERTY        SUNNY     27  27 100 CALM      30.04S
6HR MIN TEMP:  27; 6HR MAX TEMP:  31;

SPARTANBURG    CLEAR     32  28  86 CALM      30.05S
CLEMSON        PTCLDY    33  33 100 CALM      30.05S FOG
6HR MIN TEMP:  34; 6HR MAX TEMP:  39;

GREENVILLE     CLEAR     36  29  75 CALM      30.05S
6HR MIN TEMP:  35; 6HR MAX TEMP:  41;

GREENWOOD      CLEAR     28  28 100 N3        30.07R
6HR MIN TEMP:  28; 6HR MAX TEMP:  32;

GREER          CLEAR     31  29  92 CALM      30.05S
6HR MIN TEMP:  31; 6HR MAX TEMP:  36;

ROCK HILL      FOG       32  32 100 CALM      30.07R VSB 1/4
6HR MIN TEMP:  29; 6HR MAX TEMP:  32; 6HR PCP: TRACE;

CHESTER        SUNNY     32  32 100 N3        30.07R
LAURENS        SUNNY     28  28 100 N3        30.06R


...CENTRAL SOUTH CAROLINA...

CITY           SKY/WX    TMP DP  RH WIND       PRES   REMARKS
COLUMBIA APT   PTCLDY    31  30  96 CALM      30.05R
6HR MIN TEMP:  31; 6HR MAX TEMP:  36;

COLUMBIA OWENS CLEAR     33  31  92 CALM      30.06R
6HR MIN TEMP:  33; 6HR MAX TEMP:  36;

MCENTIRE ANGB  CLEAR     33  30  91 CALM      30.04R
6HR MIN TEMP:  32; 6HR MAX TEMP:  39;

ORANGEBURG     CLEAR     36  33  89 CALM      30.03R
6HR MIN TEMP:  35; 6HR MAX TEMP:  41;

SUMTER SHAW    CLEAR     35  31  86 N6        30.02R WCI  29
6HR MIN TEMP:  33; 6HR MAX TEMP:  37;

NEWBERRY       MOSUNNY   32  30  93 N6        30.09R WCI  26
AIKEN          FAIR      34  32  93 CALM      30.06S
BARNWELL         N/A     37  34  87 CALM      30.03R
MANNING        FAIR      36  34  93 MISG      30.03R
CAMDEN         FAIR      32  30  93 CALM      30.06R
LANCASTER      SUNNY     28  28 100 CALM      30.07R
WINNSBORO      SUNNY     30  30 100 N3        30.04S


...EASTERN AND COASTAL SOUTH CAROLINA...

CITY           SKY/WX    TMP DP  RH WIND       PRES   REMARKS
MYRTLE BEACH   CLEAR     42  37  82 N10       30.01
6HR MIN TEMP:  41; 6HR MAX TEMP:  46;

N MYRTLE BCH   CLEAR     42  36  79 N13       29.99F
6HR MIN TEMP:  42; 6HR MAX TEMP:  46;

CONWAY         FAIR      36  36 100 N5        30.02R WCI  32
MARION         FAIR      34  32  93 N5        30.04S WCI  30
HARTSVILLE     FAIR      32  30  93 CALM      30.05R
FLORENCE       CLEAR     34  32  92 N8        30.04S WCI  27
6HR MIN TEMP:  34; 6HR MAX TEMP:  38;

DARLINGTON     CLEAR     29  27  92 CALM      30.07R
6HR MIN TEMP:  29; 6HR MAX TEMP:  31;

CHARLESTON APT PTCLDY    42  38  85 N12       29.98S
6HR MIN TEMP:  42; 6HR MAX TEMP:  45;

MOUNT PLEASANT FAIR      45  37  76 N6        29.98S
WALTERBORO     SUNNY     39  36  87 N6        30.01S WCI  35
BEAUFORT       CLEAR     44  41  89 N12       29.99R
6HR MIN TEMP:  44; 6HR MAX TEMP:  48;



...EASTERN GEORGIA...

CITY           SKY/WX    TMP DP  RH WIND       PRES   REMARKS
AUGUSTA BUSH F CLEAR     34  32  92 N5        30.04R WCI  30
6HR MIN TEMP:  32; 6HR MAX TEMP:  37;

AUGUSTA DANIEL PTCLDY    38  34  85 N9        30.04R WCI  31
6HR MIN TEMP:  38; 6HR MAX TEMP:  45;

THOMSON        CLEAR     29  29  96 CALM      30.10S
6HR MIN TEMP:  29; 6HR MAX TEMP:  36;

WASHINGTON     FAIR      32  32 100 N3        30.05S
CLAXTON        FAIR      43  37  80 CALM      30.01R
6HR MIN TEMP:  43; 6HR MAX TEMP:  46;

SYLVANIA       SUNNY     40  37  86 NE7       30.02R
6HR MIN TEMP:  40; 6HR MAX TEMP:  43;

STATESBORO     CLEAR     39  34  82 N5        30.01R
6HR MIN TEMP:  39; 6HR MAX TEMP:  43;

SAVANNAH       PTCLDY    43  39  86 N7        29.98S
6HR MIN TEMP:  43; 6HR MAX TEMP:  47;



...SOUTHERN NORTH CAROLINA...

CITY           SKY/WX    TMP DP  RH WIND       PRES   REMARKS
CHARLOTTE      CLEAR     27  27 100 N3        30.07R
6HR MIN TEMP:  27; 6HR MAX TEMP:  34;

MONROE         CLEAR     31  29  92 NE3       30.05R
6HR MIN TEMP:  28; 6HR MAX TEMP:  33;

WADESBORO      FOG       24  22  92 CALM      30.08R VSB 3/4
RUTHERFORDTON  CLEAR     29  29 100 CALM      30.06S
ASHEVILLE      CLEAR     28  26  92 CALM      30.03F
6HR MIN TEMP:  27; 6HR MAX TEMP:  32;


$$




USA.gov is the U.S. government's official web portal to all federal, state and local government web resources and services.